Time,TemperatureF,DewpointF,PressureIn,WindDirection,WindDirectionDegrees,WindSpeedMPH,WindSpeedGustMPH,Humidity,HourlyPrecipIn,Conditions,Clouds,dailyrainin,SoftwareType,DateUTC
2013-10-19 00:01:00,72.7,69.9,29.94,ESE,117,0.0,16.0,91,0.00,,---,0.00,VWS V12.08,2013-10-19 04:01:00,
2013-10-19 00:02:00,72.6,69.8,29.94,ESE,117,0.0,16.0,91,0.00,,---,0.00,VWS V12.08,2013-10-19 04:02:00,
2013-10-19 00:07:00,72.5,69.7,29.94,ESE,117,0.0,16.0,91,0.00,,---,0.00,VWS V12.08,2013-10-19 04:07:00,
2013-10-19 00:12:00,72.3,69.8,29.94,ESE,117,0.0,16.0,92,0.00,,---,0.00,VWS V12.08,2013-10-19 04:12:00,
2013-10-19 00:17:00,72.2,69.8,29.94,ESE,117,0.0,16.0,92,0.00,,---,0.00,VWS V12.08,2013-10-19 04:17:00,
2013-10-19 00:22:00,72.2,70.1,29.94,ESE,117,0.0,16.0,93,0.00,,---,0.00,VWS V12.08,2013-10-19 04:22:00,
2013-10-19 00:27:00,71.7,68.9,29.94,ESE,117,0.0,16.0,91,0.00,,---,0.00,VWS V12.08,2013-10-19 04:27:00,
2013-10-19 00:32:00,71.3,68.9,29.94,ESE,117,0.0,16.0,92,0.00,,---,0.00,VWS V12.08,2013-10-19 04:32:00,
2013-10-19 00:37:00,71.0,68.6,29.94,ESE,117,0.0,16.0,92,0.00,,---,0.00,VWS V12.08,2013-10-19 04:37:00,
2013-10-19 00:42:00,70.9,68.8,29.93,ESE,117,0.0,16.0,93,0.00,,---,0.00,VWS V12.08,2013-10-19 04:42:00,
2013-10-19 00:47:00,70.8,68.7,29.94,ESE,117,0.0,16.0,93,0.00,,---,0.00,VWS V12.08,2013-10-19 04:47:00,
2013-10-19 00:52:00,70.6,68.2,29.94,ESE,117,0.0,16.0,92,0.00,,---,0.00,VWS V12.08,2013-10-19 04:52:00,
2013-10-19 00:57:00,70.3,67.9,29.93,ESE,117,0.0,16.0,92,0.00,,---,0.00,VWS V12.08,2013-10-19 04:57:00,
2013-10-19 01:02:00,70.1,68.0,29.93,ESE,117,0.0,16.0,93,0.00,,---,0.00,VWS V12.08,2013-10-19 05:02:00,
2013-10-19 01:07:00,70.2,68.1,29.93,ESE,117,0.0,16.0,93,0.00,,---,0.00,VWS V12.08,2013-10-19 05:07:00,
2013-10-19 01:12:00,70.1,68.0,29.93,ESE,117,0.0,16.0,93,0.00,,---,0.00,VWS V12.08,2013-10-19 05:12:00,
2013-10-19 01:17:00,69.9,67.8,29.93,ESE,117,0.0,16.0,93,0.00,,---,0.00,VWS V12.08,2013-10-19 05:17:00,
2013-10-19 01:22:00,69.8,67.7,29.93,ESE,117,0.0,16.0,93,0.00,,---,0.00,VWS V12.08,2013-10-19 05:22:00,
2013-10-19 01:27:00,69.8,67.7,29.93,ESE,117,0.0,16.0,93,0.00,,---,0.00,VWS V12.08,2013-10-19 05:27:00,
2013-10-19 01:32:00,69.6,67.5,29.93,ESE,117,0.0,16.0,93,0.00,,---,0.00,VWS V12.08,2013-10-19 05:32:00,
2013-10-19 01:37:00,69.4,67.3,29.93,ESE,117,0.0,16.0,93,0.00,,---,0.00,VWS V12.08,2013-10-19 05:37:00,
2013-10-19 01:42:00,69.1,67.0,29.93,ESE,117,0.0,16.0,93,0.00,,---,0.00,VWS V12.08,2013-10-19 05:42:00,
2013-10-19 01:47:00,69.0,67.2,29.93,ESE,117,0.0,16.0,94,0.00,,---,0.00,VWS V12.08,2013-10-19 05:47:00,
2013-10-19 01:52:00,69.0,67.2,29.93,ESE,117,0.0,16.0,94,0.00,,---,0.00,VWS V12.08,2013-10-19 05:52:00,
2013-10-19 01:57:00,68.8,67.0,29.93,ESE,117,0.0,16.0,94,0.00,,---,0.00,VWS V12.08,2013-10-19 05:57:00,
2013-10-19 02:02:00,68.6,66.8,29.93,ESE,117,0.0,16.0,94,0.00,,---,0.00,VWS V12.08,2013-10-19 06:02:00,
2013-10-19 02:07:00,68.5,66.7,29.93,ESE,117,0.0,16.0,94,0.00,,---,0.00,VWS V12.08,2013-10-19 06:07:00,
2013-10-19 02:12:00,68.5,66.7,29.93,ESE,117,0.0,16.0,94,0.00,,---,0.00,VWS V12.08,2013-10-19 06:12:00,
2013-10-19 02:17:00,68.5,66.7,29.93,ESE,117,0.0,16.0,94,0.00,,---,0.00,VWS V12.08,2013-10-19 06:17:00,
2013-10-19 02:22:00,68.6,66.8,29.93,ESE,117,0.0,16.0,94,0.00,,---,0.00,VWS V12.08,2013-10-19 06:22:00,
2013-10-19 02:27:00,68.6,66.8,29.92,ESE,117,0.0,16.0,94,0.00,,---,0.00,VWS V12.08,2013-10-19 06:27:00,
2013-10-19 02:32:00,68.5,66.7,29.92,ESE,117,0.0,16.0,94,0.00,,---,0.00,VWS V12.08,2013-10-19 06:32:00,
2013-10-19 02:37:00,68.5,66.7,29.92,ESE,117,0.0,16.0,94,0.00,,---,0.00,VWS V12.08,2013-10-19 06:37:00,
2013-10-19 02:42:00,68.6,66.8,29.92,ESE,117,0.0,16.0,94,0.00,,---,0.00,VWS V12.08,2013-10-19 06:42:00,
2013-10-19 02:47:00,68.6,66.8,29.92,ESE,117,0.0,16.0,94,0.00,,---,0.00,VWS V12.08,2013-10-19 06:47:00,
2013-10-19 02:52:00,68.3,66.5,29.92,ESE,117,0.0,16.0,94,0.00,,---,0.00,VWS V12.08,2013-10-19 06:52:00,
2013-10-19 02:57:00,68.0,66.2,29.92,ESE,117,0.0,16.0,94,0.00,,---,0.00,VWS V12.08,2013-10-19 06:57:00,
2013-10-19 03:02:00,67.8,66.0,29.92,ESE,117,0.0,16.0,94,0.00,,---,0.00,VWS V12.08,2013-10-19 07:02:00,
2013-10-19 03:07:00,67.7,65.9,29.91,ESE,117,0.0,16.0,94,0.00,,---,0.00,VWS V12.08,2013-10-19 07:07:00,
2013-10-19 03:12:00,67.6,65.8,29.92,ESE,117,0.0,16.0,94,0.00,,---,0.00,VWS V12.08,2013-10-19 07:12:00,
2013-10-19 03:17:00,67.8,66.3,29.91,ESE,117,0.0,16.0,95,0.00,,---,0.00,VWS V12.08,2013-10-19 07:17:00,
2013-10-19 03:22:00,67.9,66.4,29.91,ESE,117,0.0,16.0,95,0.00,,---,0.00,VWS V12.08,2013-10-19 07:22:00,
2013-10-19 03:27:00,68.0,66.5,29.91,ESE,117,0.0,16.0,95,0.00,,---,0.00,VWS V12.08,2013-10-19 07:27:00,
2013-10-19 03:32:00,67.9,66.4,29.91,ESE,117,0.0,16.0,95,0.00,,---,0.00,VWS V12.08,2013-10-19 07:32:00,
2013-10-19 03:37:00,67.9,66.4,29.91,ESE,117,0.0,16.0,95,0.00,,---,0.00,VWS V12.08,2013-10-19 07:37:00,
2013-10-19 03:42:00,67.8,66.3,29.91,ESE,117,0.0,16.0,95,0.00,,---,0.00,VWS V12.08,2013-10-19 07:42:00,
2013-10-19 03:47:00,67.7,66.2,29.91,ESE,117,0.0,16.0,95,0.00,,---,0.00,VWS V12.08,2013-10-19 07:47:00,
2013-10-19 03:52:00,67.6,66.1,29.91,ESE,117,0.0,16.0,95,0.00,,---,0.00,VWS V12.08,2013-10-19 07:52:00,
2013-10-19 03:57:00,67.5,66.0,29.91,ESE,117,0.0,16.0,95,0.00,,---,0.00,VWS V12.08,2013-10-19 07:57:00,
2013-10-19 04:02:00,67.5,66.0,29.91,ESE,117,0.0,16.0,95,0.00,,---,0.00,VWS V12.08,2013-10-19 08:02:00,
2013-10-19 04:07:00,67.7,66.2,29.91,ESE,117,0.0,16.0,95,0.00,,---,0.00,VWS V12.08,2013-10-19 08:07:00,
2013-10-19 04:12:00,67.7,66.2,29.91,ESE,117,0.0,16.0,95,0.00,,---,0.00,VWS V12.08,2013-10-19 08:12:00,
2013-10-19 04:17:00,67.7,66.2,29.91,ESE,117,0.0,16.0,95,0.00,,---,0.00,VWS V12.08,2013-10-19 08:17:00,
2013-10-19 04:22:00,67.7,66.2,29.91,ESE,117,0.0,16.0,95,0.00,,---,0.00,VWS V12.08,2013-10-19 08:22:00,
2013-10-19 04:27:00,67.6,66.1,29.91,ESE,117,0.0,16.0,95,0.00,,---,0.00,VWS V12.08,2013-10-19 08:27:00,
2013-10-19 04:32:00,67.5,66.0,29.91,ESE,117,0.0,16.0,95,0.00,,---,0.00,VWS V12.08,2013-10-19 08:32:00,
2013-10-19 04:37:00,67.4,65.9,29.91,ESE,117,0.0,16.0,95,0.00,,---,0.00,VWS V12.08,2013-10-19 08:37:00,
2013-10-19 04:42:00,67.4,65.9,29.91,ESE,117,0.0,16.0,95,0.00,,---,0.00,VWS V12.08,2013-10-19 08:42:00,
2013-10-19 04:47:00,67.4,65.9,29.91,ESE,117,0.0,16.0,95,0.00,,---,0.00,VWS V12.08,2013-10-19 08:47:00,
2013-10-19 04:52:00,67.2,65.7,29.91,ESE,117,0.0,16.0,95,0.00,,---,0.00,VWS V12.08,2013-10-19 08:52:00,
2013-10-19 04:57:00,67.1,65.6,29.92,ESE,117,0.0,16.0,95,0.00,,---,0.00,VWS V12.08,2013-10-19 08:57:00,
2013-10-19 05:02:00,67.1,65.6,29.92,ESE,117,0.0,16.0,95,0.00,,---,0.00,VWS V12.08,2013-10-19 09:02:00,
2013-10-19 05:07:00,67.2,66.0,29.91,ESE,117,0.0,16.0,96,0.00,,---,0.00,VWS V12.08,2013-10-19 09:07:00,
2013-10-19 05:12:00,67.2,66.0,29.91,ESE,117,0.0,16.0,96,0.00,,---,0.00,VWS V12.08,2013-10-19 09:12:00,
2013-10-19 05:17:00,67.0,65.5,29.91,ESE,117,0.0,16.0,95,0.00,,---,0.00,VWS V12.08,2013-10-19 09:17:00,
2013-10-19 05:22:00,66.7,65.2,29.91,ESE,117,0.0,16.0,95,0.00,,---,0.00,VWS V12.08,2013-10-19 09:22:00,
2013-10-19 05:27:00,66.7,65.2,29.92,ESE,117,0.0,16.0,95,0.00,,---,0.00,VWS V12.08,2013-10-19 09:27:00,
2013-10-19 05:32:00,66.7,65.2,29.92,ESE,117,0.0,16.0,95,0.00,,---,0.00,VWS V12.08,2013-10-19 09:32:00,
2013-10-19 05:37:00,66.7,65.2,29.92,ESE,117,0.0,16.0,95,0.00,,---,0.00,VWS V12.08,2013-10-19 09:37:00,
2013-10-19 05:42:00,66.7,65.5,29.92,ESE,117,0.0,16.0,96,0.00,,---,0.00,VWS V12.08,2013-10-19 09:42:00,
2013-10-19 05:47:00,66.6,65.1,29.92,ESE,117,0.0,16.0,95,0.00,,---,0.00,VWS V12.08,2013-10-19 09:47:00,
2013-10-19 05:52:00,66.5,65.0,29.92,ESE,117,0.0,16.0,95,0.00,,---,0.00,VWS V12.08,2013-10-19 09:52:00,
2013-10-19 05:57:00,66.5,65.0,29.92,ESE,117,0.0,16.0,95,0.00,,---,0.00,VWS V12.08,2013-10-19 09:57:00,
2013-10-19 06:02:00,66.5,65.3,29.92,ESE,117,0.0,16.0,96,0.00,,---,0.00,VWS V12.08,2013-10-19 10:02:00,
2013-10-19 06:08:00,66.6,65.4,29.92,ESE,117,0.0,16.0,96,0.00,,---,0.00,VWS V12.08,2013-10-19 10:08:00,
2013-10-19 06:12:00,66.6,65.4,29.91,ESE,117,0.0,16.0,96,0.00,,---,0.00,VWS V12.08,2013-10-19 10:12:00,
2013-10-19 06:18:00,66.6,65.4,29.92,ESE,117,0.0,16.0,96,0.00,,---,0.00,VWS V12.08,2013-10-19 10:18:00,
2013-10-19 06:23:00,66.6,65.4,29.91,ESE,117,0.0,16.0,96,0.00,,---,0.00,VWS V12.08,2013-10-19 10:23:00,
2013-10-19 06:28:00,66.5,65.3,29.92,ESE,117,0.0,16.0,96,0.00,,---,0.00,VWS V12.08,2013-10-19 10:28:00,
2013-10-19 06:33:00,66.3,65.1,29.92,ESE,117,0.0,16.0,96,0.00,,---,0.00,VWS V12.08,2013-10-19 10:33:00,
2013-10-19 06:38:00,66.2,65.0,29.92,ESE,117,0.0,16.0,96,0.00,,---,0.00,VWS V12.08,2013-10-19 10:38:00,
2013-10-19 06:43:00,66.1,64.6,29.92,ESE,117,0.0,16.0,95,0.00,,---,0.00,VWS V12.08,2013-10-19 10:43:00,
2013-10-19 06:48:00,66.1,64.9,29.92,ESE,117,0.0,16.0,96,0.00,,---,0.00,VWS V12.08,2013-10-19 10:48:00,
2013-10-19 06:53:00,66.3,65.1,29.92,ESE,117,0.0,16.0,96,0.00,,---,0.00,VWS V12.08,2013-10-19 10:53:00,
2013-10-19 06:58:00,66.3,65.1,29.92,ESE,117,0.0,16.0,96,0.00,,---,0.00,VWS V12.08,2013-10-19 10:58:00,
2013-10-19 07:03:00,66.0,64.5,29.92,ESE,117,0.0,16.0,95,0.00,,---,0.00,VWS V12.08,2013-10-19 11:03:00,
2013-10-19 07:08:00,65.9,64.7,29.92,ESE,117,0.0,16.0,96,0.00,,---,0.00,VWS V12.08,2013-10-19 11:08:00,
2013-10-19 07:13:00,65.7,64.5,29.92,ESE,117,0.0,16.0,96,0.00,,---,0.00,VWS V12.08,2013-10-19 11:13:00,
2013-10-19 07:18:00,65.5,64.3,29.92,ESE,117,0.0,16.0,96,0.00,,---,0.00,VWS V12.08,2013-10-19 11:18:00,
2013-10-19 07:23:00,65.4,63.9,29.93,ESE,117,0.0,16.0,95,0.00,,---,0.00,VWS V12.08,2013-10-19 11:23:00,
2013-10-19 07:28:00,65.4,64.2,29.93,ESE,117,0.0,16.0,96,0.00,,---,0.00,VWS V12.08,2013-10-19 11:28:00,
2013-10-19 07:33:00,65.5,64.3,29.92,ESE,117,0.0,16.0,96,0.00,,---,0.00,VWS V12.08,2013-10-19 11:33:00,
2013-10-19 07:38:00,65.6,64.4,29.92,ESE,117,0.0,16.0,96,0.00,,---,0.00,VWS V12.08,2013-10-19 11:38:00,
2013-10-19 07:43:00,65.5,64.3,29.92,ESE,117,0.0,16.0,96,0.00,,---,0.00,VWS V12.08,2013-10-19 11:43:00,
2013-10-19 07:48:00,65.5,64.3,29.93,ESE,117,0.0,16.0,96,0.00,,---,0.00,VWS V12.08,2013-10-19 11:48:00,
2013-10-19 07:53:00,65.6,64.4,29.93,ESE,117,0.0,16.0,96,0.00,,---,0.00,VWS V12.08,2013-10-19 11:53:00,
2013-10-19 07:58:00,65.8,64.6,29.93,ESE,117,0.0,16.0,96,0.00,,---,0.00,VWS V12.08,2013-10-19 11:58:00,
2013-10-19 08:03:00,66.0,65.1,29.93,ESE,117,0.0,16.0,97,0.00,,---,0.00,VWS V12.08,2013-10-19 12:03:00,
2013-10-19 08:08:00,66.4,65.5,29.93,ESE,117,0.0,16.0,97,0.00,,---,0.00,VWS V12.08,2013-10-19 12:08:00,
2013-10-19 08:13:00,67.1,66.2,29.93,ESE,117,0.0,16.0,97,0.00,,---,0.00,VWS V12.08,2013-10-19 12:13:00,
2013-10-19 08:18:00,67.9,67.3,29.93,ESE,117,0.0,16.0,98,0.00,,---,0.00,VWS V12.08,2013-10-19 12:18:00,
2013-10-19 08:23:00,68.6,68.0,29.93,ESE,117,0.0,16.0,98,0.00,,---,0.00,VWS V12.08,2013-10-19 12:23:00,
2013-10-19 08:28:00,69.0,68.1,29.93,ESE,117,0.0,16.0,97,0.00,,---,0.00,VWS V12.08,2013-10-19 12:28:00,
2013-10-19 08:33:00,69.3,68.4,29.93,ESE,117,0.0,16.0,97,0.00,,---,0.00,VWS V12.08,2013-10-19 12:33:00,
2013-10-19 08:38:00,69.7,68.8,29.93,ESE,117,0.0,16.0,97,0.00,,---,0.00,VWS V12.08,2013-10-19 12:38:00,
2013-10-19 08:43:00,70.3,69.4,29.93,ESE,117,0.0,16.0,97,0.00,,---,0.00,VWS V12.08,2013-10-19 12:43:00,
2013-10-19 08:48:00,71.0,70.4,29.93,ESE,117,0.0,16.0,98,0.00,,---,0.00,VWS V12.08,2013-10-19 12:48:00,
2013-10-19 08:53:00,72.0,71.4,29.93,ESE,117,0.0,16.0,98,0.00,,---,0.00,VWS V12.08,2013-10-19 12:53:00,
2013-10-19 08:58:00,73.2,72.6,29.93,ESE,117,0.0,16.0,98,0.00,,---,0.00,VWS V12.08,2013-10-19 12:58:00,
2013-10-19 09:03:00,74.0,73.4,29.93,ESE,117,0.0,16.0,98,0.00,,---,0.00,VWS V12.08,2013-10-19 13:03:00,
2013-10-19 09:08:00,74.8,73.9,29.93,ESE,117,4.0,16.0,97,0.00,,---,0.00,VWS V12.08,2013-10-19 13:08:00,
2013-10-19 09:13:00,75.4,74.2,29.94,ESE,117,0.0,16.0,96,0.00,,---,0.00,VWS V12.08,2013-10-19 13:13:00,
2013-10-19 09:18:00,76.2,74.7,29.94,East,100,2.0,16.0,95,0.00,,---,0.00,VWS V12.08,2013-10-19 13:18:00,
2013-10-19 09:23:00,76.9,75.1,29.94,ESE,120,5.0,16.0,94,0.00,,---,0.00,VWS V12.08,2013-10-19 13:23:00,
2013-10-19 09:28:00,77.5,75.3,29.94,SE,146,4.0,16.0,93,0.00,,---,0.00,VWS V12.08,2013-10-19 13:28:00,
2013-10-19 09:33:00,78.0,75.5,29.94,SSE,148,0.0,16.0,92,0.00,,---,0.00,VWS V12.08,2013-10-19 13:33:00,
2013-10-19 09:38:00,78.5,75.7,29.94,SSW,206,8.0,16.0,91,0.00,,---,0.00,VWS V12.08,2013-10-19 13:38:00,
2013-10-19 09:43:00,78.9,76.1,29.94,SW,216,6.0,16.0,91,0.00,,---,0.00,VWS V12.08,2013-10-19 13:43:00,
2013-10-19 09:48:00,79.4,75.9,29.94,SSW,209,5.0,16.0,89,0.00,,---,0.00,VWS V12.08,2013-10-19 13:48:00,
2013-10-19 09:53:00,79.7,75.5,29.94,SSW,202,6.0,16.0,87,0.00,,---,0.00,VWS V12.08,2013-10-19 13:53:00,
2013-10-19 09:58:00,80.0,75.8,29.94,SSW,213,7.0,16.0,87,0.00,,---,0.00,VWS V12.08,2013-10-19 13:58:00,
2013-10-19 10:03:00,80.6,75.7,29.94,South,190,8.0,16.0,85,0.00,,---,0.00,VWS V12.08,2013-10-19 14:03:00,
2013-10-19 10:08:00,80.9,76.0,29.94,South,175,9.0,16.0,85,0.00,,---,0.00,VWS V12.08,2013-10-19 14:08:00,
2013-10-19 10:13:00,81.4,75.7,29.94,WSW,241,8.0,16.0,83,0.00,,---,0.00,VWS V12.08,2013-10-19 14:13:00,
2013-10-19 10:18:00,81.8,74.7,29.94,SW,223,5.0,16.0,79,0.00,,---,0.00,VWS V12.08,2013-10-19 14:18:00,
2013-10-19 10:23:00,82.4,74.9,29.94,SW,220,6.0,16.0,78,0.00,,---,0.00,VWS V12.08,2013-10-19 14:23:00,
2013-10-19 10:28:00,82.7,74.8,29.94,South,184,4.0,16.0,77,0.00,,---,0.00,VWS V12.08,2013-10-19 14:28:00,
2013-10-19 10:33:00,82.8,74.5,29.94,SW,236,13.0,16.0,76,0.00,,---,0.00,VWS V12.08,2013-10-19 14:33:00,
2013-10-19 10:38:00,82.9,74.9,29.94,SSW,211,4.0,16.0,77,0.00,,---,0.00,VWS V12.08,2013-10-19 14:38:00,
2013-10-19 10:43:00,83.3,74.6,29.94,SW,225,10.0,16.0,75,0.00,,---,0.00,VWS V12.08,2013-10-19 14:43:00,
2013-10-19 10:48:00,83.4,74.7,29.94,SSW,202,5.0,16.0,75,0.00,,---,0.00,VWS V12.08,2013-10-19 14:48:00,
2013-10-19 10:53:00,83.5,74.8,29.94,SW,214,8.0,16.0,75,0.00,,---,0.00,VWS V12.08,2013-10-19 14:53:00,
2013-10-19 10:58:00,83.5,74.3,29.94,South,190,7.0,16.0,74,0.00,,---,0.00,VWS V12.08,2013-10-19 14:58:00,
2013-10-19 11:03:00,83.4,74.2,29.94,SSW,200,7.0,16.0,74,0.00,,---,0.00,VWS V12.08,2013-10-19 15:03:00,
2013-10-19 11:08:00,83.7,74.9,29.94,SSW,211,4.0,16.0,75,0.00,,---,0.00,VWS V12.08,2013-10-19 15:08:00,
2013-10-19 11:13:00,84.3,74.7,29.94,SSW,207,10.0,16.0,73,0.00,,---,0.00,VWS V12.08,2013-10-19 15:13:00,
2013-10-19 11:18:00,84.6,75.0,29.94,SW,217,5.0,16.0,73,0.00,,---,0.00,VWS V12.08,2013-10-19 15:18:00,
2013-10-19 11:23:00,84.7,74.7,29.94,SW,214,6.0,16.0,72,0.00,,---,0.00,VWS V12.08,2013-10-19 15:23:00,
2013-10-19 11:28:00,84.7,74.3,29.94,SSW,198,5.0,16.0,71,0.00,,---,0.00,VWS V12.08,2013-10-19 15:28:00,
2013-10-19 11:33:00,84.9,74.4,29.94,South,187,6.0,16.0,71,0.00,,---,0.00,VWS V12.08,2013-10-19 15:33:00,
2013-10-19 11:38:00,85.2,74.7,29.94,SW,225,7.0,16.0,71,0.00,,---,0.00,VWS V12.08,2013-10-19 15:38:00,
2013-10-19 11:43:00,85.4,74.5,29.94,SSW,195,6.0,16.0,70,0.00,,---,0.00,VWS V12.08,2013-10-19 15:43:00,
2013-10-19 11:48:00,85.7,74.8,29.93,South,182,2.0,16.0,70,0.00,,---,0.00,VWS V12.08,2013-10-19 15:48:00,
2013-10-19 11:53:00,85.8,74.5,29.93,SW,236,7.0,16.0,69,0.00,,---,0.00,VWS V12.08,2013-10-19 15:53:00,
2013-10-19 11:58:00,86.1,74.3,29.93,SW,218,5.0,16.0,68,0.00,,---,0.00,VWS V12.08,2013-10-19 15:58:00,
2013-10-19 12:03:00,86.3,74.5,29.92,SSW,194,6.0,16.0,68,0.00,,---,0.00,VWS V12.08,2013-10-19 16:03:00,
2013-10-19 12:08:00,86.5,75.1,29.92,SE,138,7.0,16.0,69,0.00,,---,0.00,VWS V12.08,2013-10-19 16:08:00,
2013-10-19 12:13:00,86.9,74.6,29.92,South,175,1.0,17.0,67,0.00,,---,0.00,VWS V12.08,2013-10-19 16:13:00,
2013-10-19 12:18:00,87.2,74.9,29.92,SSE,162,0.0,17.0,67,0.00,,---,0.00,VWS V12.08,2013-10-19 16:18:00,
2013-10-19 12:23:00,87.0,74.7,29.92,South,171,8.0,17.0,67,0.00,,---,0.00,VWS V12.08,2013-10-19 16:23:00,
2013-10-19 12:28:00,86.5,74.7,29.92,South,182,1.0,17.0,68,0.00,,---,0.00,VWS V12.08,2013-10-19 16:28:00,
2013-10-19 12:33:00,86.7,75.3,29.91,SSW,198,6.0,17.0,69,0.00,,---,0.00,VWS V12.08,2013-10-19 16:33:00,
2013-10-19 12:38:00,87.4,75.6,29.91,South,171,4.0,17.0,68,0.00,,---,0.00,VWS V12.08,2013-10-19 16:38:00,
2013-10-19 12:43:00,87.7,74.5,29.91,South,186,5.0,17.0,65,0.00,,---,0.00,VWS V12.08,2013-10-19 16:43:00,
2013-10-19 12:48:00,87.5,73.8,29.90,South,190,4.0,17.0,64,0.00,,---,0.00,VWS V12.08,2013-10-19 16:48:00,
2013-10-19 12:53:00,87.8,74.1,29.90,SSW,202,5.0,17.0,64,0.00,,---,0.00,VWS V12.08,2013-10-19 16:53:00,
2013-10-19 12:58:00,87.8,74.6,29.90,SSW,204,0.0,17.0,65,0.00,,---,0.00,VWS V12.08,2013-10-19 16:58:00,
2013-10-19 13:03:00,88.0,73.8,29.90,SW,226,5.0,17.0,63,0.00,,---,0.00,VWS V12.08,2013-10-19 17:03:00,
2013-10-19 13:08:00,87.8,74.1,29.90,SW,220,9.0,17.0,64,0.00,,---,0.00,VWS V12.08,2013-10-19 17:08:00,
2013-10-19 13:13:00,87.5,73.4,29.90,SW,214,5.0,17.0,63,0.00,,---,0.00,VWS V12.08,2013-10-19 17:13:00,
2013-10-19 13:18:00,87.5,73.8,29.89,SSW,205,8.0,17.0,64,0.00,,---,0.00,VWS V12.08,2013-10-19 17:18:00,
2013-10-19 13:23:00,87.9,73.7,29.89,WSW,244,4.0,17.0,63,0.00,,---,0.00,VWS V12.08,2013-10-19 17:23:00,
2013-10-19 13:28:00,88.1,74.4,29.89,SSW,199,2.0,17.0,64,0.00,,---,0.00,VWS V12.08,2013-10-19 17:28:00,
2013-10-19 13:33:00,88.4,74.2,29.88,SSW,206,8.0,17.0,63,0.00,,---,0.00,VWS V12.08,2013-10-19 17:33:00,
2013-10-19 13:38:00,88.3,73.6,29.88,WSW,240,3.0,17.0,62,0.00,,---,0.00,VWS V12.08,2013-10-19 17:38:00,
2013-10-19 13:43:00,88.6,73.9,29.88,SW,235,6.0,17.0,62,0.00,,---,0.00,VWS V12.08,2013-10-19 17:43:00,
2013-10-19 13:48:00,89.0,73.8,29.88,SW,219,8.0,17.0,61,0.00,,---,0.00,VWS V12.08,2013-10-19 17:48:00,
2013-10-19 13:53:00,89.3,74.1,29.88,SSW,197,8.0,17.0,61,0.00,,---,0.00,VWS V12.08,2013-10-19 17:53:00,
2013-10-19 13:58:00,89.3,73.6,29.88,SW,221,6.0,17.0,60,0.00,,---,0.00,VWS V12.08,2013-10-19 17:58:00,
2013-10-19 14:03:00,89.6,73.4,29.87,SSW,195,7.0,17.0,59,0.00,,---,0.00,VWS V12.08,2013-10-19 18:03:00,
2013-10-19 14:08:00,89.5,72.8,29.87,SSW,202,3.0,17.0,58,0.00,,---,0.00,VWS V12.08,2013-10-19 18:08:00,
2013-10-19 14:13:00,89.2,73.0,29.86,South,188,5.0,17.0,59,0.00,,---,0.00,VWS V12.08,2013-10-19 18:13:00,
2013-10-19 14:18:00,88.8,72.6,29.86,South,180,4.0,17.0,59,0.00,,---,0.00,VWS V12.08,2013-10-19 18:18:00,
2013-10-19 14:23:00,88.9,72.7,29.86,WSW,249,7.0,17.0,59,0.00,,---,0.00,VWS V12.08,2013-10-19 18:23:00,
2013-10-19 14:28:00,89.3,72.6,29.86,SSW,207,5.0,17.0,58,0.00,,---,0.00,VWS V12.08,2013-10-19 18:28:00,
2013-10-19 14:33:00,89.1,73.4,29.86,SSE,152,4.0,17.0,60,0.00,,---,0.00,VWS V12.08,2013-10-19 18:33:00,
2013-10-19 14:38:00,89.9,72.1,29.85,South,180,7.0,17.0,56,0.00,,---,0.00,VWS V12.08,2013-10-19 18:38:00,
2013-10-19 14:43:00,90.2,71.3,29.85,SW,216,4.0,17.0,54,0.00,,---,0.00,VWS V12.08,2013-10-19 18:43:00,
2013-10-19 14:48:00,90.1,71.8,29.85,SW,217,7.0,17.0,55,0.00,,---,0.00,VWS V12.08,2013-10-19 18:48:00,
2013-10-19 14:53:00,90.4,72.1,29.85,SSE,155,4.0,17.0,55,0.00,,---,0.00,VWS V12.08,2013-10-19 18:53:00,
2013-10-19 14:58:00,90.2,71.9,29.85,WSW,243,7.0,17.0,55,0.00,,---,0.00,VWS V12.08,2013-10-19 18:58:00,
2013-10-19 15:03:00,90.2,72.4,29.85,SW,221,9.0,17.0,56,0.00,,---,0.00,VWS V12.08,2013-10-19 19:03:00,
2013-10-19 15:08:00,90.0,71.7,29.85,SSW,196,8.0,17.0,55,0.00,,---,0.00,VWS V12.08,2013-10-19 19:08:00,
2013-10-19 15:13:00,90.1,71.8,29.85,SW,225,10.0,17.0,55,0.00,,---,0.00,VWS V12.08,2013-10-19 19:13:00,
2013-10-19 15:18:00,90.0,72.2,29.85,SW,234,3.0,17.0,56,0.00,,---,0.00,VWS V12.08,2013-10-19 19:18:00,
2013-10-19 15:23:00,89.9,73.2,29.85,SSW,211,7.0,17.0,58,0.00,,---,0.00,VWS V12.08,2013-10-19 19:23:00,
2013-10-19 15:28:00,89.7,73.0,29.85,SW,224,5.0,17.0,58,0.00,,---,0.00,VWS V12.08,2013-10-19 19:28:00,
2013-10-19 15:33:00,89.3,72.6,29.85,SW,215,6.0,17.0,58,0.00,,---,0.00,VWS V12.08,2013-10-19 19:33:00,
2013-10-19 15:38:00,89.1,72.4,29.85,SSW,207,5.0,17.0,58,0.00,,---,0.00,VWS V12.08,2013-10-19 19:38:00,
2013-10-19 15:43:00,89.2,72.5,29.85,SSW,202,9.0,17.0,58,0.00,,---,0.00,VWS V12.08,2013-10-19 19:43:00,
2013-10-19 15:48:00,89.7,72.4,29.85,SW,224,7.0,17.0,57,0.00,,---,0.00,VWS V12.08,2013-10-19 19:48:00,
2013-10-19 15:53:00,89.6,72.9,29.85,SW,225,11.0,17.0,58,0.00,,---,0.00,VWS V12.08,2013-10-19 19:53:00,
2013-10-19 15:58:00,89.7,73.5,29.85,SW,219,6.0,17.0,59,0.00,,---,0.00,VWS V12.08,2013-10-19 19:58:00,
2013-10-19 16:03:00,89.6,72.4,29.84,SW,219,5.0,17.0,57,0.00,,---,0.00,VWS V12.08,2013-10-19 20:03:00,
2013-10-19 16:08:00,89.2,72.5,29.84,SSW,209,3.0,17.0,58,0.00,,---,0.00,VWS V12.08,2013-10-19 20:08:00,
2013-10-19 16:13:00,89.5,73.8,29.84,SW,236,11.0,17.0,60,0.00,,---,0.00,VWS V12.08,2013-10-19 20:13:00,
2013-10-19 16:18:00,89.6,72.9,29.85,SSW,202,6.0,17.0,58,0.00,,---,0.00,VWS V12.08,2013-10-19 20:18:00,
2013-10-19 16:23:00,89.1,72.4,29.85,SSW,193,0.0,17.0,58,0.00,,---,0.00,VWS V12.08,2013-10-19 20:23:00,
2013-10-19 16:28:00,88.6,72.9,29.84,SSW,198,1.0,17.0,60,0.00,,---,0.00,VWS V12.08,2013-10-19 20:28:00,
2013-10-19 16:33:00,88.3,73.2,29.84,SSW,209,0.0,17.0,61,0.00,,---,0.00,VWS V12.08,2013-10-19 20:33:00,
2013-10-19 16:38:00,88.3,73.2,29.84,South,186,4.0,17.0,61,0.00,,---,0.00,VWS V12.08,2013-10-19 20:38:00,
2013-10-19 16:43:00,88.6,73.4,29.84,South,171,6.0,17.0,61,0.00,,---,0.00,VWS V12.08,2013-10-19 20:43:00,
2013-10-19 16:48:00,88.6,72.9,29.84,South,191,4.0,17.0,60,0.00,,---,0.00,VWS V12.08,2013-10-19 20:48:00,
2013-10-19 16:53:00,89.0,73.3,29.84,South,182,3.0,17.0,60,0.00,,---,0.00,VWS V12.08,2013-10-19 20:53:00,
2013-10-19 16:58:00,89.2,73.5,29.84,SSE,165,1.0,17.0,60,0.00,,---,0.00,VWS V12.08,2013-10-19 20:58:00,
2013-10-19 17:03:00,89.4,73.2,29.84,South,171,4.0,17.0,59,0.00,,---,0.00,VWS V12.08,2013-10-19 21:03:00,
2013-10-19 17:08:00,89.1,72.9,29.84,South,169,7.0,17.0,59,0.00,,---,0.00,VWS V12.08,2013-10-19 21:08:00,
2013-10-19 17:13:00,88.9,73.2,29.84,SSW,203,6.0,17.0,60,0.00,,---,0.00,VWS V12.08,2013-10-19 21:13:00,
2013-10-19 17:18:00,89.0,73.3,29.84,SSW,192,5.0,17.0,60,0.00,,---,0.00,VWS V12.08,2013-10-19 21:18:00,
2013-10-19 17:23:00,88.8,73.1,29.84,South,186,6.0,17.0,60,0.00,,---,0.00,VWS V12.08,2013-10-19 21:23:00,
2013-10-19 17:28:00,88.5,72.8,29.84,South,190,4.0,17.0,60,0.00,,---,0.00,VWS V12.08,2013-10-19 21:28:00,
2013-10-19 17:33:00,88.2,72.6,29.84,SSW,210,5.0,17.0,60,0.00,,---,0.00,VWS V12.08,2013-10-19 21:33:00,
2013-10-19 17:38:00,87.8,72.7,29.84,SSW,212,4.0,17.0,61,0.00,,---,0.00,VWS V12.08,2013-10-19 21:38:00,
2013-10-19 17:43:00,87.6,72.5,29.84,SSW,212,0.0,17.0,61,0.00,,---,0.00,VWS V12.08,2013-10-19 21:43:00,
2013-10-19 17:48:00,87.4,72.8,29.84,SW,217,4.0,17.0,62,0.00,,---,0.00,VWS V12.08,2013-10-19 21:48:00,
2013-10-19 17:53:00,87.2,72.6,29.84,SW,217,4.0,17.0,62,0.00,,---,0.00,VWS V12.08,2013-10-19 21:53:00,
2013-10-19 17:58:00,86.8,72.7,29.84,SW,217,5.0,17.0,63,0.00,,---,0.00,VWS V12.08,2013-10-19 21:58:00,
2013-10-19 18:03:00,86.5,72.4,29.84,SW,218,5.0,17.0,63,0.00,,---,0.00,VWS V12.08,2013-10-19 22:03:00,
2013-10-19 18:08:00,86.1,73.9,29.85,WSW,250,8.0,17.0,67,0.00,,---,0.00,VWS V12.08,2013-10-19 22:08:00,
2013-10-19 18:13:00,85.1,73.8,29.85,WNW,295,5.0,17.0,69,0.00,,---,0.00,VWS V12.08,2013-10-19 22:13:00,
2013-10-19 18:18:00,84.2,73.8,29.85,WNW,297,0.0,17.0,71,0.00,,---,0.00,VWS V12.08,2013-10-19 22:18:00,
2013-10-19 18:23:00,83.6,74.0,29.85,WNW,298,6.0,17.0,73,0.00,,---,0.00,VWS V12.08,2013-10-19 22:23:00,
2013-10-19 18:28:00,83.0,73.9,29.85,WNW,295,0.0,17.0,74,0.00,,---,0.00,VWS V12.08,2013-10-19 22:28:00,
2013-10-19 18:33:00,82.6,73.9,29.86,WNW,295,0.0,17.0,75,0.00,,---,0.00,VWS V12.08,2013-10-19 22:33:00,
2013-10-19 18:38:00,82.3,74.0,29.86,WNW,296,0.0,17.0,76,0.00,,---,0.00,VWS V12.08,2013-10-19 22:38:00,
2013-10-19 18:43:00,81.8,73.5,29.86,WNW,297,0.0,17.0,76,0.00,,---,0.00,VWS V12.08,2013-10-19 22:43:00,
2013-10-19 18:48:00,81.5,73.6,29.86,WNW,297,0.0,17.0,77,0.00,,---,0.00,VWS V12.08,2013-10-19 22:48:00,
2013-10-19 18:53:00,81.3,73.4,29.86,WNW,297,1.0,17.0,77,0.00,,---,0.00,VWS V12.08,2013-10-19 22:53:00,
2013-10-19 18:58:00,81.1,73.6,29.86,WNW,297,0.0,17.0,78,0.00,,---,0.00,VWS V12.08,2013-10-19 22:58:00,
2013-10-19 19:03:00,81.0,73.5,29.86,WNW,297,0.0,17.0,78,0.00,,---,0.00,VWS V12.08,2013-10-19 23:03:00,
2013-10-19 19:08:00,80.8,73.7,29.86,WNW,297,0.0,17.0,79,0.00,,---,0.00,VWS V12.08,2013-10-19 23:08:00,
2013-10-19 19:13:00,80.6,73.9,29.86,WNW,297,0.0,17.0,80,0.00,,---,0.00,VWS V12.08,2013-10-19 23:13:00,
2013-10-19 19:18:00,80.4,73.7,29.86,WNW,297,0.0,17.0,80,0.00,,---,0.00,VWS V12.08,2013-10-19 23:18:00,
2013-10-19 19:23:00,80.2,73.8,29.86,WNW,297,0.0,17.0,81,0.00,,---,0.00,VWS V12.08,2013-10-19 23:23:00,
2013-10-19 19:28:00,80.1,73.8,29.87,WNW,297,0.0,17.0,81,0.00,,---,0.00,VWS V12.08,2013-10-19 23:28:00,
2013-10-19 19:33:00,80.0,73.7,29.87,WNW,297,0.0,17.0,81,0.00,,---,0.00,VWS V12.08,2013-10-19 23:33:00,
2013-10-19 19:38:00,79.9,73.6,29.87,WNW,297,0.0,17.0,81,0.00,,---,0.00,VWS V12.08,2013-10-19 23:38:00,
2013-10-19 19:43:00,79.8,73.8,29.87,WNW,297,0.0,17.0,82,0.00,,---,0.00,VWS V12.08,2013-10-19 23:43:00,
2013-10-19 19:48:00,79.8,73.8,29.88,WNW,297,0.0,17.0,82,0.00,,---,0.00,VWS V12.08,2013-10-19 23:48:00,
2013-10-19 19:53:00,79.7,73.7,29.88,WNW,297,0.0,17.0,82,0.00,,---,0.00,VWS V12.08,2013-10-19 23:53:00,
2013-10-19 19:58:00,79.7,73.7,29.88,WNW,297,0.0,17.0,82,0.00,,---,0.00,VWS V12.08,2013-10-19 23:58:00,
2013-10-19 20:03:00,79.6,73.6,29.88,WNW,297,0.0,17.0,82,0.00,,---,0.00,VWS V12.08,2013-10-20 00:03:00,
2013-10-19 20:08:00,79.6,73.6,29.88,WNW,297,0.0,17.0,82,0.00,,---,0.00,VWS V12.08,2013-10-20 00:08:00,
2013-10-19 20:13:00,79.5,73.5,29.88,WNW,297,0.0,17.0,82,0.00,,---,0.00,VWS V12.08,2013-10-20 00:13:00,
2013-10-19 20:18:00,79.5,73.9,29.88,WNW,297,0.0,17.0,83,0.00,,---,0.00,VWS V12.08,2013-10-20 00:18:00,
2013-10-19 20:23:00,79.4,73.8,29.88,WNW,297,0.0,17.0,83,0.00,,---,0.00,VWS V12.08,2013-10-20 00:23:00,
2013-10-19 20:28:00,79.3,73.7,29.88,WNW,297,0.0,17.0,83,0.00,,---,0.00,VWS V12.08,2013-10-20 00:28:00,
2013-10-19 20:33:00,79.3,73.7,29.88,WNW,297,0.0,17.0,83,0.00,,---,0.00,VWS V12.08,2013-10-20 00:33:00,
2013-10-19 20:38:00,79.2,73.6,29.88,WNW,297,0.0,17.0,83,0.00,,---,0.00,VWS V12.08,2013-10-20 00:38:00,
2013-10-19 20:43:00,79.2,73.9,29.88,WNW,297,0.0,17.0,84,0.00,,---,0.00,VWS V12.08,2013-10-20 00:43:00,
2013-10-19 20:48:00,79.0,73.8,29.88,WNW,297,0.0,17.0,84,0.00,,---,0.00,VWS V12.08,2013-10-20 00:48:00,
2013-10-19 20:53:00,78.9,73.7,29.88,WNW,297,0.0,17.0,84,0.00,,---,0.00,VWS V12.08,2013-10-20 00:53:00,
2013-10-19 20:58:00,78.7,73.5,29.88,WNW,297,0.0,17.0,84,0.00,,---,0.00,VWS V12.08,2013-10-20 00:58:00,
2013-10-19 21:03:00,78.6,73.7,29.88,WNW,297,0.0,17.0,85,0.00,,---,0.00,VWS V12.08,2013-10-20 01:03:00,
2013-10-19 21:08:00,78.6,73.7,29.88,WNW,297,0.0,17.0,85,0.00,,---,0.00,VWS V12.08,2013-10-20 01:08:00,
2013-10-19 21:13:00,78.5,73.6,29.88,WNW,297,0.0,17.0,85,0.00,,---,0.00,VWS V12.08,2013-10-20 01:13:00,
2013-10-19 21:18:00,78.5,73.6,29.88,WNW,297,0.0,17.0,85,0.00,,---,0.00,VWS V12.08,2013-10-20 01:18:00,
2013-10-19 21:23:00,78.4,73.5,29.88,WNW,297,0.0,17.0,85,0.00,,---,0.00,VWS V12.08,2013-10-20 01:23:00,
2013-10-19 21:28:00,78.3,73.4,29.88,WNW,297,0.0,17.0,85,0.00,,---,0.00,VWS V12.08,2013-10-20 01:28:00,
2013-10-19 21:33:00,78.3,73.8,29.88,WNW,297,0.0,17.0,86,0.00,,---,0.00,VWS V12.08,2013-10-20 01:33:00,
2013-10-19 21:38:00,78.3,73.8,29.89,WNW,297,0.0,17.0,86,0.00,,---,0.00,VWS V12.08,2013-10-20 01:38:00,
2013-10-19 21:43:00,78.2,73.7,29.88,WNW,297,0.0,17.0,86,0.00,,---,0.00,VWS V12.08,2013-10-20 01:43:00,
2013-10-19 21:48:00,78.2,73.7,29.88,WNW,297,0.0,17.0,86,0.00,,---,0.00,VWS V12.08,2013-10-20 01:48:00,
2013-10-19 21:53:00,78.2,73.7,29.88,WNW,297,0.0,17.0,86,0.00,,---,0.00,VWS V12.08,2013-10-20 01:53:00,
2013-10-19 21:58:00,78.1,73.6,29.88,WNW,297,0.0,17.0,86,0.00,,---,0.00,VWS V12.08,2013-10-20 01:58:00,
2013-10-19 22:03:00,78.0,73.8,29.88,WNW,297,0.0,17.0,87,0.00,,---,0.00,VWS V12.08,2013-10-20 02:03:00,
2013-10-19 22:08:00,77.9,73.7,29.89,WNW,297,0.0,17.0,87,0.00,,---,0.00,VWS V12.08,2013-10-20 02:08:00,
2013-10-19 22:13:00,77.8,73.6,29.89,WNW,297,0.0,17.0,87,0.00,,---,0.00,VWS V12.08,2013-10-20 02:13:00,
2013-10-19 22:18:00,77.7,73.5,29.89,WNW,297,0.0,17.0,87,0.00,,---,0.00,VWS V12.08,2013-10-20 02:18:00,
2013-10-19 22:23:00,77.6,73.4,29.89,WNW,297,0.0,17.0,87,0.00,,---,0.00,VWS V12.08,2013-10-20 02:23:00,
2013-10-19 22:28:00,77.6,73.8,29.89,WNW,297,0.0,17.0,88,0.00,,---,0.00,VWS V12.08,2013-10-20 02:28:00,
2013-10-19 22:33:00,77.6,73.8,29.89,WNW,297,0.0,17.0,88,0.00,,---,0.00,VWS V12.08,2013-10-20 02:33:00,
2013-10-19 22:38:00,77.6,73.8,29.89,WNW,297,0.0,17.0,88,0.00,,---,0.00,VWS V12.08,2013-10-20 02:38:00,
2013-10-19 22:43:00,77.6,73.8,29.89,WNW,297,0.0,17.0,88,0.00,,---,0.00,VWS V12.08,2013-10-20 02:43:00,
2013-10-19 22:48:00,77.6,73.4,29.89,WNW,297,0.0,17.0,87,0.00,,---,0.00,VWS V12.08,2013-10-20 02:48:00,
2013-10-19 22:53:00,77.6,73.4,29.89,WNW,297,0.0,17.0,87,0.00,,---,0.00,VWS V12.08,2013-10-20 02:53:00,
2013-10-19 22:58:00,77.6,73.4,29.89,WNW,297,0.0,17.0,87,0.00,,---,0.00,VWS V12.08,2013-10-20 02:58:00,
2013-10-19 23:03:00,77.6,73.4,29.90,WNW,297,0.0,17.0,87,0.00,,---,0.00,VWS V12.08,2013-10-20 03:03:00,
2013-10-19 23:08:00,77.5,73.3,29.89,WNW,297,0.0,17.0,87,0.00,,---,0.00,VWS V12.08,2013-10-20 03:08:00,
2013-10-19 23:13:00,77.4,73.2,29.89,WNW,297,0.0,17.0,87,0.00,,---,0.00,VWS V12.08,2013-10-20 03:13:00,
2013-10-19 23:18:00,77.2,73.0,29.89,WNW,297,0.0,17.0,87,0.00,,---,0.00,VWS V12.08,2013-10-20 03:18:00,
2013-10-19 23:23:00,77.0,73.2,29.89,WNW,297,0.0,17.0,88,0.00,,---,0.00,VWS V12.08,2013-10-20 03:23:00,
2013-10-19 23:28:00,76.8,73.0,29.89,WNW,297,0.0,17.0,88,0.00,,---,0.00,VWS V12.08,2013-10-20 03:28:00,
2013-10-19 23:33:00,76.7,72.9,29.89,WNW,297,0.0,17.0,88,0.00,,---,0.00,VWS V12.08,2013-10-20 03:33:00,
2013-10-19 23:38:00,76.5,72.7,29.88,WNW,297,0.0,17.0,88,0.00,,---,0.00,VWS V12.08,2013-10-20 03:38:00,
2013-10-19 23:43:00,76.4,72.9,29.89,WNW,297,0.0,17.0,89,0.00,,---,0.00,VWS V12.08,2013-10-20 03:43:00,
2013-10-19 23:48:00,76.2,72.4,29.88,WNW,297,0.0,17.0,88,0.00,,---,0.00,VWS V12.08,2013-10-20 03:48:00,
2013-10-19 23:53:00,76.0,72.2,29.89,WNW,297,0.0,17.0,88,0.00,,---,0.00,VWS V12.08,2013-10-20 03:53:00,
2013-10-19 23:58:00,75.9,72.4,29.89,WNW,297,0.0,17.0,89,0.00,,---,0.00,VWS V12.08,2013-10-20 03:58:00,